Location: *
(49.6619°S, 177.4603°W)
Time: 05:25:19
(UTC+00:00)

USA 306 - Pass Details

Date: 31 January 2023
Orbit: 496 x 519 km, 54.0° (Epoch: 15 February)

Event Time Altitude Azimuth Distance (km) Brightness Sun altitude
Rises 07:51:19 0° 291° (WNW) 2,635 6.9 -3.0°
Reaches altitude 10° 07:53:30 10° 289° (WNW) 1,758 6.0 -3.3°
Maximum altitude 07:57:29 76° 203° (SSW) 551 3.0 -3.8°
Drops below altitude 10° 08:01:34 10° 116° (ESE) 1,793 5.2 -4.4°
Enters shadow 08:07:07 -10° 112° (ESE) 4,014 6.9 -5.1°
